Weather in Etten-Leur

Netherlands     51°34′00″N   4°38′26″E
temp.,
°C
wind,
m/s
gust,
m/s
humid.,
%
clouds,
%
prec.,
mm/h
press.,
hPa
HPBL,
m
22 april, thu
thu2223:00+5nne61169100 0.0 1023492
02:00+2ne388053 0.0 1024214
05:00+2nne3580100 0.0 1025107
08:00+3nne2476100 0.0 1026155
11:00+8nne455966 0.0 10271059
14:00+12nne454888 0.0 10271386
17:00+13n45455 0.0 10261588
20:00+9n476324 0.0 1027269
23 april, fri
fri2323:00+4nne35815 0.0 102999
02:00+2nne34905 0.0 102966
05:00+1ne22935 0.0 102934
08:00+3ne23835 0.0 1030121
11:00+9ne34545 0.0 1030804
14:00+13ne34435 0.0 10291202
17:00+14ne44415 0.0 10281368
20:00+10ne47605 0.0 1028169
24 april, sat
sat2423:00+5ne49815 0.0 1029170
02:00+4ne498958 0.0 1028170
05:00+3ne379296 0.0 1028133
08:00+4ene3781100 0.0 1028200
11:00+9ne4656100 0.0 1028661
14:00+12ne5654100 0.0 10271114
17:00+13nne6654100 0.0 10261241
20:00+9nne5871100 0.0 1026414
25 april, sun
sun2523:00+6ne51173100 0.0 1028368
02:00+3ne511840 0.0 1028307
05:00+1ne39920 0.0 1028211
08:00+3ne48793 0.0 1028300
11:00+8ne56550 0.0 1028834
14:00+12ne56455 0.0 10261184
17:00+13ne5543100 0.0 10251416
20:00+8nne6970100 0.0 1024387
26 april, mon
mon2623:00+5nne5117764 0.0 1024325
02:00+2ne49910 0.0 1024208
05:00+1ne38960 0.0 1023170
08:00+3ne48850 0.0 1022269
11:00+8ne56565 0.0 1021869
14:00+12ne4548100 0.0 10181311
17:00+12ne5550100 0.0 10161531
20:00+9nne5873100 0.0 1014515